Temp
24 24 24 23 20 18 20 22 22 23 20 19 20 19 17 17 19 19 17 17 19 21 21 20 20 21 20 20 20 20 20 20 20 20 20 20 20 20 20 19 19 19 19 19 19 19 19 19 19
24 24 24 23 19 19 20 21 22 23 21 19 18 19 18 19 16 17 19 19 19 21 21 21 20 20 20 20 20 20 20 20 20 20 20 20 20 19 19 19 19 19 19 19 19 19 19 19 19
25 25 23 18 16 21 21 23 23 24 23 22 18 19 19 18 16 17 20 22 20 21 21 21 21 21 20 20 20 20 19 19 19 19 19 19 19 19 19 19 19 19 19 19 19 19 19 19 19
25 24 23 20 22 21 23 23 23 23 22 22 19 17 18 18 18 20 21 21 20 21 21 21 21 21 21 21 21 20 20 20 19 19 19 19 19 19 19 19 19 19 19 19 19 19 19 19 18
25 24 19 19 21 22 23 23 22 20 19 20 19 17 17 16 17 18 17 20 19 20 20 20 20 20 20 21 20 20 20 20 19 19 19 19 19 19 19 19 19 19 19 18 18 19 19 18 18
25 22 19 19 21 22 23 23 22 20 19 19 18 17 16 16 18 19 18 19 19 20 20 21 20 20 20 20 20 20 20 19 19 19 19 19 18 18 18 18 18 18 18 18 18 18 18 18 18
21 17 19 20 21 23 24 24 22 21 20 18 19 16 16 17 19 19 19 20 21 21 21 21 22 22 21 21 21 20 20 19 19 18 18 18 18 18 18 18 18 18 18 18 18 18 18 18 18
24 18 21 21 21 23 24 24 22 21 18 18 19 17 16 16 19 20 21 20 22 22 22 22 22 21 21 20 20 20 20 20 20 19 19 19 19 18 17 17 17 17 17 17 17 17 17 17 17
24 17 17 21 23 24 26 23 20 19 18 18 18 19 18 18 19 21 20 20 20 19 20 20 20 19 19 19 19 19 18 18 19 19 19 19 19 19 19 19 18 17 16 16 16 17 17 18 18
20 15 19 20 23 24 24 23 21 19 17 17 17 17 18 18 19 20 19 19 19 18 19 19 18 17 18 18 19 19 19 19 19 19 19 19 19 19 19 19 19 19 18 17 16 16 17 17 17
21 19 19 24 24 24 25 22 22 18 17 17 16 16 16 16 16 17 17 18 17 17 17 18 17 17 17 18 18 18 19 18 18 19 19 19 20 19 19 19 19 19 18 18 18 16 15 16 17
22 22 24 26 25 25 24 23 21 19 18 17 17 16 16 16 16 17 17 17 17 17 17 17 17 17 17 17 17 17 17 17 18 18 18 19 19 18 17 18 18 17 18 18 17 15 14 16 16
22 23 25 26 24 21 23 19 17 17 17 17 16 17 17 17 17 17 17 17 17 17 18 17 17 17 17 17 17 17 17 17 17 18 18 18 17 17 17 17 17 16 16 16 16 16 14 15 15
24 24 25 22 21 20 20 19 19 16 15 16 16 16 17 16 16 16 16 17 17 16 16 16 17 17 17 17 16 17 17 17 18 17 17 16 15 16 16 15 15 14 14 14 15 15 15 14 15
24 23 24 20 20 18 20 17 16 15 16 15 15 14 15 15 14 15 15 16 16 15 14 15 15 15 16 15 15 16 16 17 17 17 16 15 15 15 15 15 15 14 14 14 14 15 16 16 16
23 21 21 20 19 20 19 16 16 15 16 14 13 13 13 13 14 14 14 14 14 14 14 13 14 14 13 14 15 16 16 16 16 16 15 15 16 16 15 15 15 15 15 15 15 15 15 15 15
18 21 21 23 22 18 18 18 17 15 15 13 12 13 13 13 13 13 13 13 13 13 14 14 14 14 14 14 14 14 14 13 13 12 13 13 13 14 14 15 15 15 16 15 15 15 15 15 15
22 22 21 22 21 17 16 16 16 15 14 12 12 12 12 13 12 12 13 13 13 14 14 14 14 13 14 13 13 12 13 12 12 12 13 13 13 13 13 13 14 14 15 15 15 14 14 15 15
22 22 21 19 19 16 16 15 15 14 13 12 12 13 12 12 11 12 12 12 13 13 13 13 13 12 12 12 12 12 12 12 12 13 13 13 13 13 13 13 13 13 13 13 13 14 14 13 12
21 22 22 18 19 16 16 14 14 13 13 13 12 12 12 12 11 11 12 12 13 13 13 13 13 12 12 12 12 12 12 12 13 13 12 13 13 13 13 13 13 13 12 11 11 11 11 11 10
22 23 22 18 17 17 16 15 15 14 13 12 12 12 12 12 11 11 11 11 11 12 12 12 12 12 12 12 11 11 12 12 13 13 13 12 12 11 11 11 11 11 11 11 11 10 9 9 10
22 23 21 18 17 15 18 15 14 13 12 12 12 12 12 12 11 11 11 10 10 11 11 11 11 11 11 11 11 11 11 11 10 10 10 9 9 8 8 8 8 8 7 7 8 8 8 7 7
23 23 22 21 18 18 18 14 14 12 11 11 11 12 12 12 12 11 10 10 10 10 11 11 10 11 11 10 9 9 8 7 7 7 7 7 6 6 6 6 6 6 6 6 6 6 6 6 6
22 21 17 15 15 17 19 16 14 12 12 11 12 12 12 12 11 10 9 10 10 10 10 10 10 10 9 8 7 6 5 5 5 5 4 4 4 4 4 4 4 5 5 5 6 6 6 6 5
18 16 15 18 15 17 16 15 13 14 13 13 12 12 12 12 11 10 10 10 10 10 11 10 10 9 8 7 5 4 4 3 3 3 3 4 4 4 4 4 4 5 5 5 6 6 6 6 6
20 17 15 19 16 16 16 15 13 12 14 14 13 13 12 12 11 10 10 10 10 11 10 10 9 8 7 5 4 3 3 3 3 3 3 4 4 4 4 4 4 4 5 6 6 6 6 6 6
20 17 17 15 14 14 13 13 13 12 11 12 12 12 12 11 10 10 9 9 10 9 9 9 8 7 6 5 4 3 3 3 3 3 3 4 4 4 4 4 4 4 4 5 5 5 5 5 5
21 18 17 13 17 17 14 14 13 11 10 11 10 12 12 11 10 9 9 9 9 8 8 7 6 5 4 4 3 3 3 3 3 3 4 3 3 3 3 4 4 4 4 5 5 5 5 5 5
19 17 13 13 12 14 14 13 13 12 12 11 11 13 11 10 9 9 9 9 8 8 7 5 5 4 4 4 3 3 3 3 3 3 3 2 2 2 2 3 4 4 4 4 4 4 4 4 4
19 18 14 12 16 12 11 11 13 12 12 12 12 12 11 10 9 8 8 8 8 7 5 5 4 4 4 4 3 3 3 4 4 3 2 2 2 2 2 3 4 4 4 4 4 4 4 4 4
Height
1519 1518 1516 1515 1526 1529 1531 1520 1510 1514 1520 1525 1522 1539 1548 1542 1531 1539 1535 1532 1532 1533 1533 1532 1533 1532 1534 1535 1536 1536 1536 1537 1537 1538 1538 1538 1538 1539 1539 1539 1538 1538 1538 1537 1537 1537 1536 1535 1535
1519 1518 1516 1515 1533 1545 1532 1513 1515 1512 1521 1521 1518 1522 1534 1533 1530 1528 1522 1530 1532 1533 1533 1533 1534 1534 1534 1537 1538 1538 1537 1537 1538 1539 1539 1539 1540 1539 1539 1539 1539 1539 1539 1539 1539 1538 1537 1537 1536
1519 1518 1518 1522 1538 1539 1533 1507 1504 1507 1516 1514 1522 1526 1525 1527 1529 1528 1523 1520 1530 1532 1532 1532 1535 1535 1536 1537 1539 1538 1538 1538 1538 1540 1541 1540 1540 1540 1540 1540 1540 1539 1539 1539 1539 1539 1538 1538 1537
1519 1518 1520 1530 1533 1521 1515 1504 1499 1504 1511 1511 1517 1525 1527 1529 1528 1526 1525 1525 1530 1531 1533 1533 1536 1537 1536 1537 1539 1539 1539 1539 1538 1539 1539 1540 1540 1540 1541 1540 1540 1540 1540 1540 1539 1538 1538 1537 1536
1519 1518 1529 1536 1532 1518 1509 1505 1510 1511 1514 1518 1518 1527 1528 1529 1526 1525 1527 1527 1529 1530 1533 1534 1537 1539 1539 1538 1539 1539 1539 1539 1538 1539 1539 1540 1539 1539 1539 1540 1539 1539 1539 1539 1539 1538 1537 1536 1535
1518 1520 1537 1545 1532 1518 1512 1508 1508 1515 1519 1520 1522 1524 1530 1530 1527 1527 1528 1531 1533 1533 1535 1536 1539 1539 1541 1540 1540 1541 1540 1540 1539 1539 1539 1539 1539 1538 1539 1539 1539 1538 1538 1538 1537 1536 1536 1536 1535
1518 1527 1536 1534 1530 1522 1514 1513 1516 1516 1518 1521 1522 1527 1532 1530 1529 1529 1530 1531 1533 1534 1534 1536 1537 1538 1540 1540 1540 1541 1541 1541 1540 1539 1538 1538 1538 1538 1538 1538 1537 1537 1536 1536 1536 1535 1534 1534 1534
1516 1521 1529 1530 1531 1525 1514 1516 1519 1515 1520 1523 1522 1525 1532 1529 1530 1531 1532 1535 1537 1538 1538 1538 1537 1536 1539 1540 1539 1540 1541 1540 1539 1539 1539 1538 1537 1537 1536 1535 1533 1532 1533 1533 1532 1531 1531 1531 1531
1516 1530 1541 1527 1522 1516 1514 1515 1518 1520 1520 1522 1523 1522 1527 1531 1534 1534 1536 1539 1539 1540 1540 1539 1540 1540 1539 1540 1540 1536 1539 1539 1538 1538 1539 1538 1538 1539 1539 1538 1535 1532 1529 1529 1530 1529 1528 1528 1528
1515 1532 1527 1511 1509 1510 1515 1514 1518 1523 1524 1526 1525 1528 1530 1533 1536 1538 1537 1538 1542 1541 1540 1540 1541 1543 1542 1542 1542 1541 1539 1541 1541 1538 1537 1536 1538 1539 1537 1536 1533 1529 1526 1525 1525 1526 1524 1526 1526
1514 1521 1512 1505 1508 1511 1513 1515 1520 1523 1528 1525 1522 1529 1534 1535 1538 1539 1541 1541 1542 1541 1541 1542 1542 1542 1542 1543 1542 1540 1537 1539 1538 1538 1535 1533 1533 1534 1533 1532 1530 1527 1523 1521 1522 1520 1519 1524 1523
1513 1507 1507 1500 1507 1508 1510 1513 1523 1523 1525 1531 1533 1534 1534 1537 1538 1539 1541 1543 1542 1543 1541 1542 1541 1540 1540 1541 1542 1540 1538 1538 1536 1536 1534 1532 1530 1529 1529 1528 1526 1522 1520 1516 1514 1519 1520 1522 1521
1510 1503 1502 1498 1505 1507 1507 1518 1523 1528 1531 1534 1533 1533 1535 1537 1539 1540 1541 1542 1541 1541 1541 1542 1541 1540 1541 1541 1540 1537 1536 1536 1535 1532 1531 1530 1531 1531 1527 1522 1523 1519 1517 1517 1519 1517 1517 1518 1518
1503 1501 1499 1504 1506 1512 1511 1522 1521 1537 1534 1535 1536 1537 1539 1540 1541 1541 1541 1541 1542 1542 1542 1541 1540 1540 1540 1540 1538 1535 1535 1534 1532 1531 1529 1529 1529 1527 1526 1524 1523 1519 1517 1517 1517 1516 1517 1517 1518
1502 1503 1500 1509 1508 1517 1512 1530 1534 1536 1537 1538 1539 1540 1541 1542 1543 1542 1542 1541 1542 1542 1541 1542 1542 1541 1540 1540 1538 1535 1534 1532 1529 1529 1528 1528 1526 1524 1522 1521 1521 1520 1519 1518 1517 1516 1517 1518 1517
1504 1506 1516 1513 1510 1514 1513 1543 1538 1538 1538 1541 1544 1544 1545 1544 1544 1544 1543 1543 1543 1543 1542 1542 1542 1541 1540 1539 1537 1535 1533 1531 1530 1528 1528 1526 1524 1522 1520 1519 1518 1516 1515 1515 1516 1514 1512 1513 1513
1514 1519 1513 1506 1502 1508 1516 1536 1538 1540 1542 1544 1546 1546 1548 1546 1546 1546 1545 1544 1543 1542 1540 1540 1540 1540 1538 1537 1537 1536 1534 1531 1531 1529 1528 1526 1524 1522 1520 1517 1516 1513 1512 1511 1510 1510 1508 1507 1508
1518 1517 1510 1510 1505 1507 1520 1530 1536 1543 1546 1547 1548 1548 1550 1548 1547 1547 1545 1543 1542 1541 1540 1539 1539 1538 1537 1537 1535 1535 1534 1532 1532 1530 1528 1526 1523 1520 1518 1516 1513 1511 1508 1506 1506 1504 1502 1501 1500
1508 1511 1514 1511 1508 1514 1524 1533 1540 1545 1549 1550 1551 1551 1554 1554 1551 1550 1548 1546 1544 1542 1541 1541 1541 1541 1541 1540 1539 1538 1536 1534 1533 1530 1527 1524 1522 1519 1517 1514 1511 1508 1505 1503 1501 1499 1498 1497 1496
1510 1511 1514 1517 1516 1519 1533 1543 1547 1548 1551 1553 1555 1556 1556 1554 1552 1552 1550 1549 1547 1544 1544 1544 1545 1544 1543 1541 1539 1537 1536 1534 1530 1528 1524 1522 1518 1516 1513 1510 1507 1504 1501 1499 1497 1496 1494 1493 1492
1509 1508 1509 1521 1526 1533 1533 1550 1553 1554 1555 1556 1557 1557 1558 1554 1552 1553 1552 1551 1549 1546 1545 1546 1547 1546 1544 1543 1541 1538 1535 1532 1529 1525 1522 1518 1515 1512 1509 1505 1502 1499 1495 1492 1490 1489 1488 1486 1487
1514 1503 1508 1518 1526 1549 1529 1561 1555 1554 1556 1557 1559 1560 1558 1556 1554 1553 1553 1551 1549 1547 1547 1547 1547 1546 1543 1541 1539 1535 1532 1528 1525 1521 1518 1514 1511 1509 1506 1502 1498 1495 1492 1489 1488 1487 1485 1483 1481
1506 1502 1505 1510 1523 1527 1533 1553 1550 1553 1558 1557 1558 1559 1557 1557 1557 1555 1554 1553 1550 1549 1549 1548 1547 1546 1543 1540 1537 1534 1530 1527 1524 1520 1517 1513 1510 1507 1503 1500 1497 1495 1492 1490 1487 1485 1483 1480 1479
1498 1505 1515 1524 1531 1546 1528 1539 1551 1552 1547 1552 1553 1556 1556 1556 1557 1556 1556 1554 1552 1551 1550 1548 1547 1545 1542 1538 1535 1532 1529 1525 1522 1519 1515 1512 1510 1507 1503 1500 1498 1495 1493 1490 1488 1486 1484 1481 1478
1505 1524 1552 1545 1554 1550 1531 1541 1547 1539 1538 1541 1547 1553 1554 1555 1555 1555 1554 1553 1552 1551 1550 1549 1547 1544 1540 1537 1533 1531 1528 1525 1522 1519 1515 1512 1509 1506 1503 1501 1498 1496 1493 1491 1488 1485 1482 1479 1476
1511 1522 1550 1548 1559 1546 1531 1543 1543 1537 1534 1540 1547 1550 1553 1554 1554 1554 1553 1553 1551 1550 1550 1549 1547 1544 1540 1536 1532 1530 1527 1525 1522 1519 1516 1513 1509 1507 1504 1502 1500 1497 1495 1492 1489 1486 1483 1481 1478
1513 1528 1522 1541 1547 1552 1550 1544 1539 1538 1538 1540 1544 1548 1551 1553 1552 1552 1552 1552 1551 1551 1550 1549 1547 1544 1540 1535 1531 1528 1526 1524 1522 1519 1516 1513 1510 1507 1504 1502 1501 1499 1496 1494 1491 1489 1486 1483 1480
1506 1514 1533 1545 1548 1550 1550 1546 1543 1541 1540 1541 1544 1546 1549 1549 1550 1551 1552 1552 1551 1551 1550 1548 1545 1541 1537 1534 1530 1528 1525 1524 1521 1519 1516 1513 1510 1506 1503 1502 1501 1499 1497 1495 1493 1490 1487 1484 1481
1516 1521 1532 1538 1548 1557 1558 1549 1526 1528 1529 1533 1538 1542 1545 1547 1549 1550 1552 1551 1551 1550 1549 1546 1543 1539 1536 1532 1530 1528 1525 1524 1522 1520 1517 1514 1511 1507 1504 1502 1501 1499 1497 1495 1493 1490 1487 1484 1481
1506 1513 1525 1549 1542 1551 1555 1552 1523 1520 1524 1531 1537 1541 1544 1546 1549 1551 1551 1551 1550 1549 1547 1545 1542 1538 1535 1532 1531 1528 1527 1526 1524 1522 1520 1517 1515 1511 1508 1506 1503 1500 1497 1496 1494 1492 1489 1486 1483
Wind_Speed
15 17 13 3 3 4 4 5 2 7 8 26 40 21 6 11 2 5 4 4 10 10 7 7 5 8 9 8 7 6 5 5 5 6 6 6 7 7 6 5 4 4 3 2 2 1 1 2 3
17 12 5 2 4 3 6 1 3 3 26 30 24 14 9 10 4 9 19 13 10 9 7 7 6 7 9 7 6 5 5 5 4 4 5 4 5 5 5 4 2 1 1 1 0 0 0 1 3
12 10 2 4 2 1 5 3 5 4 11 15 10 3 6 4 4 4 17 19 11 8 7 8 6 7 7 7 6 5 4 4 4 3 2 2 3 3 4 3 3 2 2 2 2 3 4 4 4
9 2 3 4 3 6 6 10 6 11 10 7 19 9 6 7 2 14 12 13 11 9 8 8 7 6 6 5 4 3 3 3 3 3 2 0 1 3 4 5 5 5 5 5 6 7 7 7 6
6 2 4 4 4 6 5 5 13 7 8 7 4 6 4 5 13 9 11 14 14 14 11 10 8 7 6 6 4 4 4 3 3 2 2 2 3 4 5 6 7 7 8 8 9 10 10 8 8
2 3 4 2 4 7 4 8 18 16 17 15 12 8 3 5 10 14 14 13 12 12 11 10 9 9 8 7 6 5 5 5 4 4 4 4 4 5 6 6 7 8 9 10 11 10 10 10 9
6 4 3 2 4 7 1 9 10 8 13 7 14 4 7 6 10 14 13 15 14 12 11 10 10 12 9 8 8 8 7 7 8 7 6 6 6 6 6 7 7 9 10 11 11 12 11 11 12
4 5 1 2 1 4 2 4 6 9 7 13 6 6 7 16 21 18 16 17 14 13 11 10 14 13 11 9 9 8 6 5 6 5 5 5 4 2 3 3 4 6 8 10 10 11 12 13 14
5 4 1 5 4 4 6 3 7 5 9 6 6 14 23 23 23 22 24 22 18 15 13 14 12 9 9 9 10 11 10 7 7 8 10 9 10 8 12 11 10 8 7 11 12 12 12 13 12
4 4 9 8 5 1 3 6 11 6 9 15 26 25 25 24 24 21 23 19 14 12 9 8 9 6 6 6 5 3 4 6 7 9 10 17 17 21 23 17 14 16 16 13 13 14 12 15 14
5 6 5 15 17 8 3 14 4 21 6 16 33 30 27 26 22 19 17 17 13 11 11 12 8 5 3 2 2 4 5 9 11 11 14 14 17 21 30 30 24 21 14 10 13 17 11 17 18
2 10 11 26 3 5 8 17 9 3 12 24 25 22 24 21 19 19 14 14 13 12 10 5 5 3 4 4 4 6 6 6 10 14 13 15 20 21 25 27 27 22 19 24 16 15 11 15 16
4 6 13 26 2 16 26 19 12 23 30 24 21 23 19 16 14 10 8 9 10 8 4 0 1 2 1 3 5 6 8 11 14 14 12 12 11 13 15 20 14 6 8 9 10 11 9 15 18
4 10 12 16 21 23 25 6 9 11 21 22 19 16 12 9 8 9 8 6 6 2 3 4 4 4 6 7 7 9 10 8 7 6 6 8 5 6 10 4 3 5 10 10 10 16 10 7 14
7 4 3 17 13 8 26 8 7 18 19 20 19 17 14 11 8 6 4 1 2 4 7 5 4 5 5 5 4 5 5 4 3 5 5 5 4 4 4 6 10 14 10 10 12 11 10 11 9
3 4 3 6 14 11 6 6 7 14 21 18 16 15 13 12 9 8 7 7 8 7 7 7 7 6 6 4 3 3 2 1 2 1 1 3 5 6 8 10 13 13 13 9 12 15 17 21 23
6 2 3 4 13 7 4 12 10 14 16 13 12 13 11 12 10 9 7 7 10 11 10 9 7 7 9 6 3 2 3 2 1 2 3 5 8 9 12 14 16 16 16 16 14 15 16 18 20
2 4 4 5 2 7 9 8 12 13 13 13 12 12 12 14 15 13 11 11 10 10 10 12 11 10 5 1 5 3 6 3 2 3 6 8 10 12 13 15 16 18 18 19 19 20 18 18 23
2 2 6 7 6 9 11 16 10 13 14 12 10 10 10 12 14 12 14 13 12 13 12 12 10 10 3 1 1 2 4 3 5 8 9 12 14 16 17 18 19 19 20 19 20 22 21 20 22
3 4 4 10 11 12 14 12 6 10 8 13 14 13 11 12 12 12 12 11 12 13 14 13 14 12 12 10 7 7 7 9 12 13 15 17 20 21 23 24 25 26 26 24 23 22 22 20 18
2 2 1 7 14 15 16 6 5 2 9 12 13 12 12 12 14 11 10 11 11 13 15 16 16 15 15 14 12 10 10 12 13 15 17 18 19 21 23 24 25 25 26 27 27 26 24 25 22
4 3 8 12 7 6 5 4 5 7 5 10 16 16 14 13 12 11 9 9 11 15 16 17 19 20 20 21 21 21 19 18 18 19 20 19 19 18 18 19 20 20 21 20 19 18 20 22 22
3 3 2 4 4 5 3 4 2 8 6 7 16 19 16 15 13 12 9 8 9 12 14 16 19 22 25 26 25 21 19 18 17 16 16 15 15 15 15 15 14 15 16 15 14 14 13 13 14
4 5 8 5 3 2 1 5 5 9 9 8 17 21 19 19 17 15 11 7 6 8 12 18 22 25 27 26 23 20 19 18 17 17 16 14 12 12 12 12 12 12 13 12 13 12 12 12 11
9 7 3 4 4 5 4 4 4 11 6 17 20 24 22 21 19 17 12 7 3 6 13 18 22 26 27 25 22 18 15 15 16 16 16 15 14 13 12 12 11 11 12 12 14 14 15 16 17
4 6 5 4 3 4 5 1 2 4 7 21 27 26 24 23 20 18 13 7 1 6 12 17 23 26 26 24 20 14 12 13 13 14 15 15 13 13 12 11 11 9 10 11 11 11 12 13 14
3 3 3 6 3 3 1 3 1 4 8 22 25 27 25 22 21 18 12 5 1 6 11 16 20 22 24 21 15 12 11 13 13 12 13 13 13 12 11 10 9 9 9 11 11 12 11 12 13
4 5 3 3 2 3 3 3 4 6 9 10 16 27 25 22 22 18 12 5 1 5 11 15 18 20 19 15 12 14 12 13 11 11 12 13 14 14 12 7 7 9 11 11 12 12 13 13 13
2 2 6 4 4 4 1 5 5 13 16 18 22 27 26 24 23 18 12 6 3 8 13 14 17 18 16 13 13 14 12 11 11 13 15 17 18 17 18 16 12 11 11 12 12 14 16 17 17
3 4 5 5 4 1 3 5 2 9 20 22 22 21 21 24 21 16 10 5 4 9 12 13 15 17 16 13 14 16 16 15 14 17 17 20 21 23 23 21 19 17 15 15 17 19 20 19 16
Wind_Direction
339 344 342 32 33 61 275 265 324 129 88 100 75 80 30 312 222 105 43 284 164 176 144 121 129 148 157 161 156 141 120 105 112 138 143 140 142 144 144 148 158 172 182 185 187 180 141 149 167
335 343 358 49 77 27 284 219 230 112 126 109 107 118 359 239 201 104 128 140 153 163 140 114 124 146 156 163 162 154 144 128 121 139 152 158 165 169 169 168 163 180 271 275 268 54 160 220 203
342 348 54 85 87 271 276 229 223 150 137 159 125 143 133 167 122 168 123 143 162 151 131 116 123 141 155 163 169 161 152 136 124 128 150 171 204 220 227 240 258 273 294 301 307 309 304 290 261
339 7 63 81 269 266 231 306 159 103 53 91 128 83 78 148 122 118 137 149 155 137 125 113 115 125 141 151 163 154 140 126 125 131 139 204 267 277 281 279 280 284 286 288 293 298 299 295 279
343 39 35 32 271 273 302 353 45 54 70 121 91 119 99 107 134 136 147 150 159 136 129 118 109 99 96 95 103 122 138 134 116 91 57 3 337 320 308 301 299 300 300 301 305 306 302 294 284
62 65 33 332 291 287 347 77 107 104 103 99 87 93 87 139 138 146 141 145 146 133 127 113 98 84 75 80 82 76 71 68 67 54 32 16 354 337 329 324 318 313 309 305 304 303 300 296 290
119 85 219 234 283 329 348 15 12 78 116 89 130 90 119 117 151 144 142 146 140 136 129 121 107 94 93 89 82 75 67 55 44 39 31 16 4 354 342 330 325 321 315 309 305 299 295 290 285
109 98 122 264 241 270 323 74 347 49 85 120 151 159 150 139 144 141 141 138 130 126 125 123 117 104 91 102 100 91 76 59 42 26 25 8 340 300 303 291 284 297 317 315 302 296 292 287 286
122 70 196 242 195 205 138 124 59 89 114 90 117 142 143 137 144 140 140 138 145 142 139 139 134 128 108 120 128 127 119 96 87 56 28 11 3 326 324 311 296 287 279 297 303 303 295 283 278
109 125 217 217 214 307 27 155 138 111 94 92 113 124 133 146 152 150 145 144 131 133 146 142 139 122 105 119 119 70 27 12 6 0 338 340 330 317 309 294 280 278 284 283 286 297 295 290 293
164 203 215 261 254 286 78 133 113 130 75 141 143 139 141 152 161 158 144 132 136 124 118 126 145 152 128 79 25 14 17 2 360 344 336 325 307 300 294 284 279 266 263 279 287 284 287 300 298
198 244 238 275 271 281 177 140 96 52 134 141 131 135 147 151 161 164 150 149 149 136 118 107 122 75 63 35 22 19 9 330 320 314 317 306 305 301 294 294 280 278 265 277 255 301 296 301 302
214 263 268 273 89 93 117 77 108 90 126 140 146 152 147 155 167 182 187 164 165 172 169 311 345 179 48 331 320 317 305 315 329 332 318 310 315 323 311 295 299 268 341 279 291 289 302 314 315
269 283 279 106 105 117 105 61 98 101 141 137 149 144 148 153 171 191 203 203 210 242 297 330 283 276 341 320 329 326 328 350 343 10 43 46 45 296 344 354 291 12 347 329 304 264 261 305 300
282 322 26 129 120 118 91 31 73 127 146 128 129 127 124 119 120 131 99 327 327 317 342 349 346 345 331 328 347 344 27 38 48 72 67 58 36 360 322 314 303 303 309 285 271 274 260 264 270
2 46 42 156 164 170 74 148 129 137 149 126 125 116 111 102 93 78 65 47 39 23 358 0 25 24 11 36 33 80 109 248 310 15 131 272 278 292 296 291 291 293 293 286 273 279 277 273 274
5 248 256 280 184 119 105 144 164 158 144 112 113 104 99 93 80 64 53 45 37 37 21 7 1 351 341 321 57 142 148 181 203 290 283 291 292 300 300 299 298 297 292 291 277 269 264 264 263
264 343 300 245 108 78 117 130 136 138 115 112 109 99 86 80 71 66 63 54 43 33 8 352 340 349 332 27 137 131 141 189 277 299 297 297 295 295 293 292 291 292 291 290 286 282 276 273 265
223 234 260 39 106 70 106 126 125 118 119 114 105 99 93 86 85 78 69 65 67 68 67 60 56 65 70 235 237 259 291 307 301 302 299 295 292 291 292 292 294 295 295 293 291 291 291 286 281
185 242 77 81 42 86 112 94 72 104 128 156 156 161 143 122 108 93 80 71 59 57 54 48 43 42 40 36 24 351 334 314 310 307 305 300 299 298 296 296 294 294 295 294 295 296 291 283 286
42 67 62 125 71 92 100 78 147 110 168 179 182 171 162 138 124 106 90 72 57 51 41 31 23 15 10 8 0 344 324 312 301 301 308 311 310 306 304 305 305 305 301 296 294 295 296 297 292
98 182 119 134 103 165 222 187 197 171 175 182 185 180 167 154 138 125 104 81 54 41 25 14 7 2 359 354 349 345 342 336 335 332 329 329 326 324 320 316 316 319 318 321 317 303 293 290 291
166 123 84 125 123 114 160 98 256 147 199 192 189 184 174 165 157 145 129 96 62 34 17 11 5 358 356 352 351 351 350 351 349 345 341 338 339 338 339 336 335 339 342 344 344 341 339 328 311
107 77 41 54 92 72 307 146 198 184 193 183 189 187 178 169 162 158 154 126 63 28 11 4 359 356 354 353 352 352 355 356 356 356 357 0 360 2 5 4 4 7 2 4 11 13 5 357 343
68 54 359 353 4 216 330 83 226 207 191 182 172 179 174 167 169 163 161 148 92 15 359 352 349 349 350 349 349 353 359 6 7 10 10 7 8 9 10 9 11 13 19 25 22 17 10 9 4
83 131 149 209 226 266 353 47 232 278 215 170 172 174 169 169 173 170 174 175 101 351 345 341 343 345 344 342 345 350 356 3 7 8 7 1 359 358 3 8 9 16 22 27 20 14 19 14 15
161 57 166 103 24 36 208 313 269 80 114 151 171 177 179 173 175 178 179 172 329 340 334 332 337 339 337 342 353 4 1 1 3 1 355 357 355 353 350 352 3 11 15 16 16 15 19 14 18
98 154 58 14 205 270 290 252 236 192 176 165 171 180 179 176 177 178 177 183 256 325 328 335 343 343 342 352 2 6 360 0 13 7 1 357 355 349 341 344 355 2 5 7 21 24 24 15 13
29 48 54 109 129 173 246 262 222 196 188 182 184 181 178 180 179 177 179 195 275 322 336 348 348 345 346 356 15 4 2 34 33 22 35 38 37 41 44 48 39 28 28 37 34 35 34 33 33
156 158 135 121 225 132 146 272 346 211 185 178 185 186 177 182 177 178 185 207 289 326 344 345 350 351 6 41 32 36 61 61 55 45 51 61 56 54 55 52 49 46 47 50 58 50 43 34 25